Stündliche Wetter Abercanaid

Heute, 23 Juni, Mittwoch

Zeit Temperatur Niederschläge Wind Luftdruck Luftfeuchtigkeit
00:00 +8°C° 0 mm 1 m/S 743 mmHg 88%
01:00 +8°C° 0 mm 1 m/S 743 mmHg 88%
02:00 +8°C° 0 mm 1 m/S 743 mmHg 88%
03:00 +7°C° 0 mm 1 m/S 743 mmHg 89%
04:00 +8°C° 0 mm 1 m/S 743 mmHg 86%
05:00 +9°C° 0 mm 1 m/S 743 mmHg 84%
06:00 +10°C° 0 mm 1 m/S 743 mmHg 82%
07:00 +12°C° 0 mm 1 m/S 743 mmHg 76%
08:00 +13°C° 0 mm 1 m/S 743 mmHg 71%
09:00 +15°C° 0 mm 1 m/S 743 mmHg 65%
10:00 +16°C° 0 mm 1 m/S 743 mmHg 63%
11:00 +16°C° 0 mm 2 m/S 743 mmHg 60%
12:00 +17°C° 0 mm 2 m/S 743 mmHg 58%
13:00 +17°C° 0 mm 2 m/S 743 mmHg 60%
14:00 +17°C° 0 mm 3 m/S 743 mmHg 63%
15:00 +17°C° 0 mm 3 m/S 743 mmHg 66%
16:00 +16°C° 0 mm 3 m/S 743 mmHg 70%
17:00 +16°C° 0 mm 3 m/S 743 mmHg 74%
18:00 +15°C° 0 mm 2 m/S 743 mmHg 78%
19:00 +14°C° 0 mm 2 m/S 743 mmHg 81%
20:00 +13°C° 0 mm 2 m/S 743 mmHg 84%
21:00 +12°C° 0 mm 2 m/S 743 mmHg 87%
22:00 +12°C° 0 mm 1 m/S 743 mmHg 87%
23:00 +12°C° 0 mm 1 m/S 743 mmHg 86%

Morgen, 24 Juni, Donnerstag

Zeit Temperatur Niederschläge Wind Luftdruck Luftfeuchtigkeit
00:00 +12°C° 0 mm 1 m/S 743 mmHg 85%
01:00 +12°C° 0 mm 1 m/S 743 mmHg 84%
02:00 +12°C° 0 mm 1 m/S 743 mmHg 83%
03:00 +12°C° 0 mm 1 m/S 743 mmHg 82%
04:00 +12°C° 0 mm 1 m/S 743 mmHg 83%
05:00 +12°C° 0 mm 1 m/S 743 mmHg 83%
06:00 +13°C° 0 mm 1 m/S 742 mmHg 84%
07:00 +13°C° 0 mm 1 m/S 742 mmHg 82%
08:00 +14°C° 0 mm 1 m/S 743 mmHg 81%
09:00 +14°C° 0 mm 1 m/S 743 mmHg 79%
10:00 +14°C° 0 mm 1 m/S 742 mmHg 81%
11:00 +15°C° 0 mm 1 m/S 742 mmHg 82%
12:00 +15°C° 0 mm 1 m/S 742 mmHg 84%
13:00 +16°C° 0 mm 2 m/S 742 mmHg 82%
14:00 +17°C° 0 mm 2 m/S 742 mmHg 81%
15:00 +18°C° 0 mm 3 m/S 742 mmHg 80%
16:00 +18°C° 0.2 mm 3 m/S 742 mmHg 83%
17:00 +17°C° 0.2 mm 3 m/S 741 mmHg 86%
18:00 +17°C° 0.2 mm 3 m/S 741 mmHg 90%
19:00 +16°C° 0.1 mm 3 m/S 741 mmHg 92%
20:00 +14°C° 0.1 mm 3 m/S 741 mmHg 94%
21:00 +13°C° 0.1 mm 3 m/S 741 mmHg 96%
22:00 +14°C° 0 mm 2 m/S 741 mmHg 96%
23:00 +14°C° 0 mm 2 m/S 740 mmHg 96%

übermorgen, 25 Juni, Freitag

Zeit Temperatur Niederschläge Wind Luftdruck Luftfeuchtigkeit
00:00 +13°C° 0 mm 2 m/S 740 mmHg 96%
01:00 +13°C° 0.6 mm 2 m/S 740 mmHg 97%
02:00 +13°C° 0.6 mm 2 m/S 739 mmHg 97%
03:00 +12°C° 0.6 mm 2 m/S 739 mmHg 97%
04:00 +13°C° 0.1 mm 2 m/S 739 mmHg 97%
05:00 +13°C° 0.1 mm 2 m/S 739 mmHg 97%
06:00 +13°C° 0.1 mm 2 m/S 738 mmHg 97%
07:00 +13°C° 0.5 mm 2 m/S 738 mmHg 97%
08:00 +13°C° 0.5 mm 1 m/S 738 mmHg 97%
09:00 +13°C° 0.5 mm 1 m/S 738 mmHg 97%
10:00 +14°C° 0.3 mm 2 m/S 738 mmHg 94%
11:00 +14°C° 0.3 mm 2 m/S 738 mmHg 90%
12:00 +14°C° 0.3 mm 3 m/S 737 mmHg 86%
13:00 +14°C° 0.4 mm 3 m/S 737 mmHg 85%
14:00 +14°C° 0.4 mm 3 m/S 737 mmHg 83%
15:00 +13°C° 0.4 mm 4 m/S 737 mmHg 81%
16:00 +13°C° 0.1 mm 4 m/S 737 mmHg 80%
17:00 +13°C° 0.1 mm 3 m/S 737 mmHg 79%
18:00 +12°C° 0.1 mm 3 m/S 737 mmHg 78%
19:00 +11°C° 0 mm 3 m/S 737 mmHg 82%
20:00 +9°C° 0 mm 2 m/S 737 mmHg 86%
21:00 +8°C° 0 mm 2 m/S 737 mmHg 89%
22:00 +7°C° 0 mm 2 m/S 737 mmHg 89%
23:00 +7°C° 0 mm 2 m/S 737 mmHg 88%

26 Juni, Samstag

Zeit Temperatur Niederschläge Wind Luftdruck Luftfeuchtigkeit
00:00 +6°C° 0 mm 2 m/S 737 mmHg 88%
01:00 +7°C° 0 mm 1 m/S 737 mmHg 87%
02:00 +8°C° 0 mm 1 m/S 736 mmHg 85%
03:00 +8°C° 0 mm 1 m/S 736 mmHg 84%
04:00 +9°C° 0 mm 1 m/S 736 mmHg 84%
05:00 +9°C° 0 mm 1 m/S 736 mmHg 84%
06:00 +10°C° 0 mm 1 m/S 736 mmHg 83%
07:00 +11°C° 0 mm 1 m/S 736 mmHg 82%
08:00 +13°C° 0 mm 2 m/S 736 mmHg 80%
09:00 +14°C° 0 mm 2 m/S 736 mmHg 79%
10:00 +14°C° 0.1 mm 2 m/S 736 mmHg 78%
11:00 +15°C° 0.1 mm 2 m/S 736 mmHg 77%
12:00 +16°C° 0.1 mm 2 m/S 736 mmHg 77%
13:00 +16°C° 0.4 mm 2 m/S 736 mmHg 78%
14:00 +16°C° 0.4 mm 2 m/S 736 mmHg 79%
15:00 +16°C° 0.4 mm 1 m/S 736 mmHg 80%
16:00 +16°C° 0.6 mm 1 m/S 736 mmHg 83%
17:00 +16°C° 0.6 mm 1 m/S 735 mmHg 85%
18:00 +15°C° 0.6 mm 1 m/S 735 mmHg 88%
19:00 +15°C° 0.5 mm 2 m/S 735 mmHg 91%
20:00 +14°C° 0.5 mm 2 m/S 735 mmHg 93%
21:00 +14°C° 0.5 mm 2 m/S 735 mmHg 95%
22:00 +13°C° 0.3 mm 3 m/S 735 mmHg 96%
23:00 +13°C° 0.3 mm 3 m/S 735 mmHg 97%

27 Juni, Sonntag

Zeit Temperatur Niederschläge Wind Luftdruck Luftfeuchtigkeit
00:00 +12°C° 0.3 mm 3 m/S 735 mmHg 97%
01:00 +12°C° 0.2 mm 3 m/S 735 mmHg 97%
02:00 +12°C° 0.2 mm 3 m/S 735 mmHg 97%
03:00 +12°C° 0.2 mm 4 m/S 735 mmHg 97%
04:00 +12°C° 0.1 mm 4 m/S 735 mmHg 97%
05:00 +13°C° 0.1 mm 5 m/S 734 mmHg 97%
06:00 +13°C° 0.1 mm 6 m/S 734 mmHg 97%
07:00 +13°C° 0.9 mm 6 m/S 734 mmHg 97%
08:00 +13°C° 0.9 mm 6 m/S 734 mmHg 97%
09:00 +13°C° 0.9 mm 6 m/S 734 mmHg 97%
10:00 +13°C° 0.5 mm 5 m/S 735 mmHg 96%
11:00 +13°C° 0.5 mm 5 m/S 735 mmHg 96%
12:00 +13°C° 0.5 mm 5 m/S 735 mmHg 95%
13:00 +13°C° 0.5 mm 5 m/S 735 mmHg 95%
14:00 +13°C° 0.5 mm 5 m/S 735 mmHg 95%
15:00 +13°C° 0.5 mm 5 m/S 735 mmHg 95%
16:00 +13°C° 0.2 mm 5 m/S 735 mmHg 95%
17:00 +13°C° 0.2 mm 5 m/S 735 mmHg 95%
18:00 +14°C° 0.2 mm 5 m/S 735 mmHg 95%
19:00 +13°C° 0.1 mm 4 m/S 736 mmHg 95%
20:00 +13°C° 0.1 mm 4 m/S 736 mmHg 96%
21:00 +13°C° 0.1 mm 4 m/S 736 mmHg 96%
22:00 +13°C° 0.1 mm 4 m/S 737 mmHg 96%
23:00 +13°C° 0.1 mm 4 m/S 737 mmHg 97%

28 Juni, Montag

Zeit Temperatur Niederschläge Wind Luftdruck Luftfeuchtigkeit
00:00 +13°C° 0.1 mm 3 m/S 737 mmHg 97%
01:00 +13°C° 0.1 mm 4 m/S 737 mmHg 96%
02:00 +13°C° 0.1 mm 4 m/S 737 mmHg 96%
03:00 +13°C° 0.1 mm 4 m/S 736 mmHg 95%
04:00 +13°C° 0.6 mm 4 m/S 737 mmHg 95%
05:00 +13°C° 0.6 mm 5 m/S 737 mmHg 95%
06:00 +13°C° 0.6 mm 5 m/S 737 mmHg 95%
07:00 +13°C° 0.2 mm 5 m/S 737 mmHg 93%
08:00 +13°C° 0.2 mm 5 m/S 737 mmHg 91%
09:00 +14°C° 0.2 mm 5 m/S 737 mmHg 90%
10:00 +14°C° 0.2 mm 6 m/S 737 mmHg 89%
11:00 +15°C° 0.2 mm 6 m/S 737 mmHg 88%
12:00 +15°C° 0.2 mm 6 m/S 737 mmHg 87%
13:00 +15°C° 0.9 mm 5 m/S 737 mmHg 89%
14:00 +14°C° 0.9 mm 5 m/S 738 mmHg 91%
15:00 +14°C° 0.9 mm 5 m/S 738 mmHg 92%
16:00 +13°C° 0.9 mm 4 m/S 738 mmHg 93%
17:00 +13°C° 0.9 mm 4 m/S 738 mmHg 94%
18:00 +13°C° 0.9 mm 4 m/S 738 mmHg 95%
19:00 +13°C° 0.5 mm 4 m/S 738 mmHg 95%
20:00 +13°C° 0.5 mm 4 m/S 739 mmHg 95%
21:00 +13°C° 0.5 mm 3 m/S 739 mmHg 95%
22:00 +13°C° 0.1 mm 3 m/S 739 mmHg 95%
23:00 +13°C° 0.1 mm 3 m/S 739 mmHg 95%
Mehr zeigen

Wir brauchen deine Erlaubnis

Meteoprog und unser Service Anbieter werden persönliche Daten aufbewahren, so wie Cookies, Geräte Bezeichnung oder ähnliche Technologien von deinem Gerät und Prozess, so wie Persönliche Daten Inhalte und Werbungen, genauso wie social Media und den Verkehr zu analysieren.

  • Aufbewahrung und/oder Zugang zu deiner Geräte Informationen.

    Cookies, Geräte Bezeichnung oder andere Informationen, können aufbewahrt oder Zugang zu deinem Gerät erhalten, für den Grund, der oben angegeben wird.

  • Personalisierte Werbung und Inhalte, Messungen, Einblick in das Publikum und Produkt Entwicklung.

    Werbungen und Inhalte können personalisiert werden, basierend auf ein Profil. Mehr Daten können besser personalisierte Werbungen und Inhalte hinzufügen. Werbung und Inhalte können gezeigt und gemessen werden. Einblicke über das Publikum, welche die Werbung gesehen haben und den Inhalt, können abgeleitet werden. So wie Daten können genutzt werden, um es zu verbessern oder die Benutzer Erfahrung zu verbessern das System und die Software.

Wenn du “Ich stimme zu” klickst, erlaubst du uns, die Cookies zu benutzen die Geräte Bezeichnung, den Web oder ähnliche Technologien zu benutzen. Deine Settings, können in deinem Gerät bei deinem Browser geändert werden.

Für den bestimmten Zweck, berechtigten Interessen beruhen darauf, mehr als auf den Inhalt. Du kannst mehr darüber in unseren Privaten und Cookie Politik lesen.